Vorticity
13 11 10 8 7 6 5 4 4 4 6 7 8 9 10 10 10 10 8 7 5 4 3 3 4 4 4 5 5 6 6 7 7 8 8 9 9 10 9 9 8 8 7 7 7 7 6 6 6 6 6 5 5 5 5 6 6 6 6 5 4 4 3 2 2 3 4 6 9 12 14 16 17 19 20 22 24 26 28 30 31 32 31 29 27 24
12 10 9 6 5 4 4 4 4 5 6 8 9 9 9 9 8 7 6 5 4 4 4 4 4 5 5 6 6 6 7 7 8 8 8 9 9 9 9 8 8 7 7 7 7 7 6 6 6 6 5 5 5 5 6 6 6 6 5 4 4 3 2 2 3 4 6 9 12 14 16 18 19 20 22 24 26 28 30 32 32 31 28 26 23 21
10 9 7 5 4 3 3 4 5 6 7 8 9 9 8 7 6 5 5 4 4 4 4 5 5 6 6 7 7 8 8 8 8 8 8 9 9 9 9 8 7 7 7 7 7 6 6 6 6 5 5 5 5 5 6 6 6 5 4 4 3 2 2 3 4 6 9 12 14 16 18 19 20 22 24 26 28 30 32 32 31 28 25 22 20 18
9 7 5 3 2 2 3 4 5 6 8 8 8 8 7 6 5 5 4 4 4 5 5 6 6 7 7 8 8 8 8 8 8 8 8 8 8 8 8 7 7 7 7 7 6 6 6 6 5 5 5 5 5 6 6 6 5 4 4 3 2 2 2 4 6 8 11 14 16 18 19 20 22 24 26 28 30 32 32 30 28 24 21 19 18 17
7 5 3 2 2 2 3 4 6 7 8 8 8 7 7 6 5 5 4 5 5 5 6 7 7 8 8 8 9 9 9 8 8 7 7 7 8 8 8 7 7 7 7 7 6 6 6 5 5 5 5 5 6 6 6 5 5 4 3 2 2 2 3 5 8 11 14 16 17 18 20 21 23 26 28 30 31 32 31 28 24 20 18 16 16 15
5 3 2 1 1 2 3 4 6 7 8 9 8 8 7 6 5 5 5 5 5 6 7 7 8 8 8 8 9 9 9 9 8 7 6 6 7 7 7 7 7 7 7 7 6 6 6 5 5 5 6 6 6 6 5 5 4 3 2 2 2 3 5 7 10 13 16 18 19 20 21 23 26 28 30 32 32 31 28 24 20 17 16 15 14 14
4 2 1 1 2 2 3 5 6 8 9 9 9 8 7 6 5 5 4 5 6 6 7 7 7 7 7 8 9 10 10 9 7 6 6 6 7 7 8 7 7 7 7 6 6 6 6 5 5 6 6 6 6 5 5 4 3 2 2 2 3 4 7 10 13 16 18 19 20 21 23 26 28 30 32 32 31 28 24 20 17 15 13 13 13 13
2 2 1 2 2 3 4 6 8 9 10 10 9 8 6 6 5 4 4 5 5 6 6 6 6 7 8 8 10 10 11 9 7 6 5 6 7 8 8 8 7 7 7 6 6 6 6 6 6 6 6 6 6 5 4 3 2 2 2 2 4 6 10 13 16 18 20 20 21 23 25 28 30 32 33 32 28 24 20 16 14 13 12 11 12 12
2 1 2 2 2 3 4 7 9 11 11 10 9 7 5 4 4 4 4 5 5 5 5 5 5 6 8 10 11 11 11 9 7 5 5 6 8 8 8 8 7 7 6 6 6 6 6 6 6 6 6 6 5 4 3 2 2 2 2 4 6 9 13 16 19 20 21 22 23 25 28 30 32 32 32 29 24 19 15 13 11 10 10 10 10 11
2 2 2 2 3 4 6 8 10 12 12 10 8 6 4 3 3 3 3 4 4 4 5 6 6 6 6 11 12 12 10 8 7 6 5 7 8 8 8 7 7 6 6 6 6 6 6 6 6 6 6 5 4 3 2 2 1 2 3 6 9 13 16 19 20 21 22 23 25 28 30 32 32 32 30 24 19 15 12 10 9 9 9 9 10 10
3 3 2 2 4 5 8 10 11 11 10 9 7 5 4 2 2 2 2 3 4 4 5 7 8 8 6 9 11 12 10 7 6 6 7 8 8 8 8 7 6 6 6 6 6 6 6 6 6 6 5 4 3 2 2 1 2 3 5 8 12 16 19 21 22 22 23 25 27 29 31 32 32 30 25 19 14 11 9 8 8 8 9 9 10 10
3 2 3 3 4 7 10 12 12 11 9 7 5 4 2 2 1 1 0 2 3 4 5 6 9 11 10 8 8 10 10 8 6 6 6 7 8 8 8 7 6 6 6 6 6 6 6 6 6 5 4 3 2 2 1 2 3 5 8 12 15 19 21 22 22 23 25 27 29 31 32 32 30 25 19 14 10 8 7 7 8 8 9 10 10 10
3 2 2 4 6 8 11 12 11 10 8 6 5 3 2 2 1 0 0 2 4 6 6 6 7 10 12 10 10 9 10 9 8 7 6 7 7 7 7 6 6 6 6 6 6 6 6 6 5 4 3 2 1 1 1 2 4 7 11 15 18 20 22 22 24 25 27 29 30 31 32 30 26 20 14 10 7 6 6 7 8 9 10 11 11 12
2 2 3 4 7 10 12 12 10 8 6 5 4 3 2 2 2 1 1 4 6 7 7 8 8 6 6 9 10 11 11 9 8 7 7 7 7 7 6 6 6 6 6 6 6 6 6 5 4 3 2 1 1 1 2 4 7 10 14 17 20 22 22 23 25 27 29 30 31 31 30 26 20 14 10 7 6 5 6 7 8 9 11 12 12 13
1 1 3 6 9 11 12 11 9 7 5 4 4 4 4 3 3 2 3 5 6 7 8 10 9 8 7 8 9 10 11 10 9 8 7 7 6 6 6 6 5 5 6 6 6 5 5 4 3 2 1 1 1 2 3 6 9 13 17 19 21 22 23 25 27 29 30 31 31 30 27 21 15 10 6 5 5 5 6 7 8 10 12 13 14 14
0 2 4 7 10 12 12 10 7 6 4 4 4 4 4 4 3 3 4 6 6 6 8 8 7 7 9 10 10 11 10 10 9 8 6 6 6 6 6 5 5 5 6 6 5 4 4 3 2 1 1 1 2 3 5 8 12 16 19 21 22 23 24 26 28 30 31 31 30 27 22 16 10 7 5 5 5 6 6 7 9 10 12 13 14 15
0 2 6 9 11 11 10 8 6 5 4 4 5 5 4 3 3 4 6 6 7 8 10 8 6 5 4 7 11 13 11 10 9 8 6 5 5 5 6 6 6 6 6 6 5 4 2 2 2 1 1 2 3 5 8 12 15 18 20 22 23 24 26 28 30 32 32 31 27 22 16 11 7 5 5 6 6 7 7 8 9 11 13 14 15 16
1 4 8 11 12 11 8 6 5 4 4 5 6 5 4 4 4 5 6 7 7 8 8 8 9 8 5 5 7 10 11 10 8 7 6 5 5 5 5 6 6 6 5 5 4 3 2 1 1 1 1 3 5 8 11 14 18 20 21 22 24 26 28 30 32 33 32 28 23 17 11 7 6 5 6 7 7 8 8 8 10 11 13 14 16 16
3 6 10 12 11 9 6 4 4 4 5 6 6 5 4 4 5 6 7 8 8 8 6 6 8 10 10 8 6 7 10 9 8 6 6 5 5 5 5 6 6 6 5 4 3 2 2 1 1 2 3 5 8 11 14 17 19 21 22 23 25 28 30 33 34 33 30 24 18 12 8 6 6 6 8 8 9 8 8 9 10 12 14 15 16 16
5 9 13 12 10 7 4 3 3 4 5 6 5 5 5 5 5 6 7 7 8 8 8 8 8 9 10 8 8 8 9 8 7 6 6 5 5 5 6 6 6 6 5 4 3 2 1 1 2 3 6 8 11 14 17 19 20 21 23 25 27 30 32 34 34 31 26 19 13 9 6 6 7 8 9 10 10 9 9 10 11 13 14 15 16 16
8 12 13 11 8 5 2 2 3 4 6 6 6 6 6 5 6 6 7 7 7 8 10 11 10 9 8 8 8 8 7 6 6 6 5 5 5 6 6 6 6 5 4 3 2 2 2 2 3 6 8 12 14 16 18 20 21 22 24 26 29 32 34 34 32 27 20 14 10 7 6 7 8 10 10 11 10 10 10 10 12 13 14 15 15 16
11 12 12 9 5 1 -0 1 3 6 7 7 7 7 6 5 5 6 6 7 8 9 10 11 10 8 8 8 7 7 6 6 6 5 4 5 6 6 6 6 5 4 4 3 2 2 3 4 6 9 12 14 16 18 19 21 22 24 26 28 31 33 35 32 28 22 15 11 8 7 7 9 10 11 11 11 10 10 10 11 12 13 14 14 15 16
12 12 10 6 2 -1 -2 2 4 6 7 8 8 8 6 5 5 5 5 6 8 9 10 10 9 8 8 7 6 6 6 7 6 6 5 6 6 6 5 5 4 4 4 3 3 3 5 7 10 12 14 16 18 20 21 22 24 25 27 30 32 33 33 29 23 16 11 9 8 8 9 10 11 11 11 11 10 10 10 11 12 13 13 13 14 15
13 12 8 3 -0 -2 -1 3 5 6 6 8 8 7 6 5 5 6 6 7 9 10 10 8 8 8 8 7 6 6 6 6 6 6 6 7 6 5 4 4 4 3 3 3 4 4 7 11 14 16 17 19 20 21 22 23 25 26 28 30 32 32 30 24 18 12 9 8 8 9 10 11 11 11 11 11 10 10 10 11 12 12 13 13 13 14
12 9 5 0 -2 -2 0 3 5 6 6 7 6 6 6 6 6 7 8 10 10 10 9 9 9 8 7 6 6 6 6 6 6 6 7 6 6 4 4 3 3 3 2 4 5 8 10 13 16 18 20 20 21 22 22 24 25 26 28 30 30 29 25 18 13 10 8 8 9 10 10 11 10 10 10 10 10 10 11 11 12 12 12 12 13 14
11 7 2 -1 -2 -1 0 2 4 6 7 7 7 6 6 5 6 6 9 10 10 10 9 10 10 8 6 6 6 6 5 6 6 6 7 6 5 4 3 3 2 2 2 4 7 11 14 15 16 18 20 21 21 22 22 24 25 26 28 29 28 24 19 14 11 9 9 9 10 10 10 10 10 10 10 10 10 11 11 12 12 12 12 12 13 13
9 4 0 -2 -2 -2 -0 2 4 6 8 8 8 7 6 5 6 7 10 10 9 8 9 9 8 6 6 6 6 5 5 5 6 6 6 5 4 3 2 2 2 2 2 6 10 14 16 16 17 18 20 20 21 21 23 24 26 27 28 27 24 20 15 11 9 9 10 10 10 10 10 9 9 9 9 10 10 11 12 12 13 13 13 12 12 13
5 2 -1 -3 -3 -2 -0 2 5 7 8 9 9 8 7 6 7 9 10 8 8 8 10 8 7 6 6 6 5 5 5 6 6 6 5 4 4 3 1 0 1 2 3 6 11 17 22 21 20 19 20 20 20 21 23 25 26 27 27 24 21 16 12 10 9 10 10 10 10 10 9 9 9 9 9 9 10 11 12 13 13 14 14 13 13 13
2 -1 -3 -4 -4 -2 0 3 6 8 9 9 9 8 7 9 10 10 8 7 8 8 9 8 7 6 6 5 5 5 6 6 6 5 3 4 3 2 0 0 1 3 5 6 10 17 26 26 24 21 20 21 22 24 25 26 27 26 25 21 17 13 10 9 9 10 10 10 10 9 9 9 8 8 8 8 9 11 12 13 14 15 15 14 13 13
-1 -3 -5 -5 -4 -1 1 4 7 9 10 10 9 7 7 10 12 12 9 8 8 8 7 7 6 6 5 5 5 6 6 6 5 4 3 3 2 1 -0 1 3 4 6 7 10 16 23 25 26 24 21 22 24 26 27 27 26 24 22 18 14 11 9 9 10 10 10 10 10 10 9 9 8 7 7 7 8 10 11 13 15 16 17 15 14 13
-4 -5 -7 -6 -4 -0 3 6 9 10 10 9 8 7 7 11 12 12 10 9 8 8 7 6 6 6 5 5 5 5 5 5 4 3 2 2 2 0 0 2 4 6 11 12 14 16 18 23 26 27 24 24 26 27 28 27 24 21 18 15 12 10 9 9 10 10 11 11 10 10 10 9 8 6 5 5 6 8 10 13 16 18 18 17 15 13
-5 -6 -7 -6 -3 1 6 9 11 12 10 8 6 7 9 11 11 10 9 8 8 7 7 6 6 6 6 6 6 5 4 3 2 2 2 2 1 1 2 4 5 8 14 20 22 22 20 22 24 27 29 29 28 28 27 25 22 18 15 13 10 9 9 9 10 11 12 12 12 11 11 9 8 6 4 3 4 6 9 13 16 18 20 18 16 14
-6 -6 -6 -5 -1 4 9 12 12 11 8 6 6 8 11 12 11 9 8 7 7 7 6 6 6 6 6 6 6 5 4 3 2 1 1 1 1 2 3 6 9 12 14 22 27 30 28 26 24 26 31 32 30 27 25 23 19 16 13 11 10 9 9 10 11 12 13 13 13 13 12 10 8 5 2 1 2 5 9 13 16 19 20 19 16 14
-4 -4 -5 -2 2 7 12 13 12 10 6 6 7 9 11 11 10 8 7 7 6 6 6 6 6 6 6 5 5 4 4 2 1 -0 0 2 2 3 5 10 13 15 16 21 25 29 32 30 28 28 30 31 30 27 22 19 16 13 11 10 9 9 9 10 11 12 13 14 14 14 14 12 9 6 3 2 3 5 10 13 17 19 20 19 17 15
-0 -1 -2 1 5 9 13 12 10 7 6 7 9 11 11 9 8 7 6 6 6 6 7 7 7 6 6 5 4 3 2 1 -0 -1 -0 2 4 5 8 14 17 18 19 22 24 26 29 31 32 32 30 30 28 24 19 16 13 11 10 9 9 9 10 10 11 12 13 14 15 16 15 14 11 9 6 4 5 7 11 15 17 19 20 20 18 16
2 2 2 4 8 10 11 10 7 6 6 9 10 11 10 8 7 7 6 6 6 7 7 7 6 6 6 5 4 2 1 -1 -1 -1 1 4 6 9 13 18 20 21 22 24 26 28 28 30 32 34 34 30 25 20 16 12 10 9 10 10 10 10 10 10 10 11 12 13 15 16 16 15 13 11 9 7 8 10 14 17 18 19 20 20 18 16
5 5 5 7 9 10 9 7 6 6 8 10 11 10 9 8 7 7 7 7 7 7 7 6 6 5 4 4 3 2 -0 -2 -1 1 3 6 10 14 18 19 21 24 26 26 27 29 30 31 32 32 32 27 21 15 13 10 9 8 9 9 9 9 9 9 9 10 11 13 14 16 16 16 15 13 11 10 11 14 18 19 19 19 19 19 18 16
8 8 8 9 9 8 7 6 7 8 10 11 11 10 8 7 7 7 7 7 7 7 6 5 5 4 3 2 1 0 -1 -0 1 3 6 10 14 19 21 21 23 27 30 30 29 30 32 33 32 30 28 22 17 12 10 9 9 9 9 8 8 8 7 8 8 9 10 12 14 16 17 16 16 14 13 13 14 17 21 20 20 19 19 19 18 16
10 10 9 9 9 8 7 7 8 10 12 12 10 8 7 7 7 7 7 7 6 6 5 4 3 2 1 0 -0 -0 -0 2 4 6 10 14 18 22 23 24 25 28 31 33 33 33 33 33 31 27 22 17 13 10 8 9 9 9 8 8 7 7 7 7 8 9 11 13 14 16 17 17 16 16 15 15 18 20 22 21 20 19 19 19 18 16
11 10 9 9 9 8 9 9 10 12 12 10 8 7 6 7 7 7 7 7 6 5 4 3 2 1 0 -0 -0 0 2 4 7 11 14 18 21 24 26 28 29 30 31 33 34 34 32 30 26 22 17 12 10 8 9 10 10 9 8 7 7 6 7 8 9 10 12 14 16 17 18 18 18 18 17 18 21 23 24 21 19 18 19 19 18 16
9 8 8 8 9 10 11 12 13 12 10 8 6 6 7 7 7 6 6 6 5 4 3 2 1 1 0 1 1 2 4 8 11 15 19 22 24 27 30 32 33 33 33 32 32 30 27 23 19 15 12 10 8 8 10 10 10 9 8 8 7 7 7 9 11 12 14 16 18 19 20 20 20 21 21 22 24 25 24 21 19 18 20 19 18 16
7 7 7 8 10 11 12 12 12 10 7 6 6 7 7 7 7 6 5 5 4 3 2 1 0 -0 -0 1 4 7 10 13 16 19 22 25 28 30 33 36 36 36 33 30 27 23 19 16 13 11 9 8 8 9 11 10 10 9 8 8 8 8 10 13 14 15 17 18 20 21 23 24 24 24 24 25 26 26 23 19 18 19 21 19 17 14
6 7 8 10 11 12 12 11 9 7 6 6 7 7 7 7 6 6 5 4 3 2 1 0 0 0 0 2 5 10 16 19 22 24 26 29 32 34 36 37 36 34 29 25 21 16 13 10 9 8 8 8 9 10 11 10 9 9 9 9 9 10 13 15 16 18 20 21 22 24 26 28 29 29 28 27 26 24 21 19 19 20 21 19 16 14
6 8 10 11 12 11 10 9 8 7 6 7 7 7 7 6 6 5 4 3 2 1 0 -0 0 2 4 7 10 13 17 22 26 30 32 34 36 37 37 35 32 27 22 18 14 11 9 8 8 8 9 10 11 11 11 10 10 10 10 11 13 14 16 16 17 19 22 24 25 27 30 32 32 31 28 26 24 23 20 20 20 21 20 17 15 14
8 10 12 12 11 10 9 8 7 6 7 7 7 7 6 6 5 4 3 2 1 0 0 0 1 4 8 12 14 17 19 24 29 33 36 37 38 37 35 31 26 20 15 12 10 8 7 7 8 9 10 12 12 12 11 11 11 12 13 14 16 18 20 21 22 23 24 25 28 30 33 34 33 31 27 24 23 22 21 21 22 21 19 16 14 14
10 11 12 11 10 9 8 7 6 6 6 7 7 6 6 4 4 3 2 1 0 0 1 2 4 8 11 14 17 20 23 27 30 33 34 34 34 33 30 25 18 13 10 8 8 8 8 8 8 9 10 12 13 13 13 13 13 14 16 17 19 21 22 24 25 26 26 27 29 31 33 34 32 28 25 24 23 22 20 21 20 19 16 14 14 14
11 11 11 10 9 8 7 6 6 6 7 7 6 6 4 3 2 1 1 0 1 1 1 4 9 14 16 18 21 24 27 29 31 32 31 30 27 24 20 16 11 8 7 7 8 9 10 10 10 10 11 12 13 14 15 16 16 17 18 19 21 22 23 24 25 26 27 28 30 31 31 30 27 24 22 22 21 20 18 18 17 16 14 13 13 15
11 10 10 8 8 7 7 7 7 7 7 6 6 4 3 2 1 0 0 1 2 3 4 8 13 17 20 23 27 29 31 32 31 30 28 26 22 19 14 9 7 6 7 9 10 11 10 10 10 11 12 14 15 16 17 18 19 20 20 21 22 24 24 25 25 26 27 28 29 28 27 23 20 18 17 17 16 14 13 12 13 13 13 11 12 14
10 10 9 8 7 7 7 7 7 7 6 5 4 3 2 1 1 0 0 1 3 6 9 12 16 19 23 27 30 32 34 33 31 28 25 21 18 14 10 7 6 7 9 11 12 12 12 12 12 13 14 16 18 19 19 20 20 20 21 22 24 25 25 25 25 25 25 26 26 25 22 17 13 12 12 12 11 9 8 9 11 13 14 11 11 13
10 9 8 8 7 7 7 7 7 6 6 4 3 2 1 0 1 1 2 4 6 10 14 17 20 23 27 29 30 31 32 30 28 25 21 17 13 10 8 7 8 9 10 12 13 13 13 13 14 16 18 20 21 22 22 21 20 20 22 23 24 25 25 25 24 24 23 24 24 22 19 14 11 9 10 10 10 9 8 10 13 15 16 12 12 13
9 8 8 8 7 7 7 7 6 5 4 3 2 1 0 0 1 2 4 7 11 15 19 22 26 29 31 31 31 31 29 26 23 19 16 13 11 9 9 9 10 11 12 13 14 15 15 14 15 17 20 23 24 24 24 22 21 20 22 23 24 25 25 24 22 22 22 22 22 21 19 16 14 13 13 13 13 13 13 14 16 18 18 14 12 13
Height
5690 5689 5687 5685 5684 5682 5680 5679 5677 5675 5672 5670 5668 5666 5664 5662 5660 5658 5656 5654 5651 5649 5646 5644 5642 5639 5636 5634 5631 5628 5625 5623 5620 5617 5615 5612 5609 5607 5604 5601 5598 5595 5592 5590 5586 5584 5580 5577 5574 5570 5566 5563 5559 5555 5551 5547 5543 5539 5535 5531 5527 5523 5518 5514 5509 5505 5500 5494 5489 5484 5479 5473 5468 5463 5458 5454 5449 5444 5440 5435 5431 5427 5423 5420 5416 5414
5688 5686 5685 5683 5681 5680 5677 5675 5674 5672 5669 5667 5665 5663 5660 5658 5656 5654 5652 5650 5648 5646 5644 5641 5638 5635 5633 5630 5627 5624 5621 5619 5616 5614 5611 5609 5606 5603 5600 5597 5595 5592 5589 5586 5583 5580 5577 5573 5570 5566 5562 5559 5555 5551 5547 5543 5539 5535 5531 5526 5522 5518 5513 5509 5504 5499 5494 5489 5483 5478 5473 5468 5463 5458 5453 5448 5444 5439 5435 5430 5427 5423 5419 5416 5413 5410
5686 5684 5682 5681 5679 5677 5675 5673 5670 5669 5667 5664 5662 5660 5657 5655 5653 5651 5649 5647 5645 5642 5640 5638 5635 5632 5629 5626 5624 5621 5618 5615 5613 5610 5607 5605 5602 5600 5597 5594 5591 5588 5585 5583 5580 5576 5573 5570 5566 5562 5559 5555 5551 5547 5543 5539 5535 5530 5526 5522 5517 5513 5508 5503 5499 5494 5488 5483 5478 5473 5468 5463 5458 5453 5448 5444 5439 5435 5431 5427 5423 5419 5416 5412 5410 5407
5684 5682 5680 5678 5676 5674 5672 5670 5668 5665 5664 5661 5659 5656 5654 5652 5650 5648 5645 5643 5641 5639 5637 5635 5632 5629 5626 5623 5620 5618 5615 5612 5609 5606 5604 5601 5599 5596 5593 5590 5588 5585 5582 5579 5576 5573 5569 5566 5562 5558 5555 5551 5547 5543 5539 5535 5530 5526 5522 5517 5513 5508 5503 5499 5493 5488 5483 5478 5473 5468 5463 5458 5453 5449 5444 5440 5435 5431 5427 5423 5420 5416 5412 5409 5406 5403
5681 5679 5677 5675 5674 5671 5670 5667 5665 5663 5660 5658 5656 5654 5651 5649 5647 5645 5642 5640 5638 5635 5633 5631 5629 5626 5623 5620 5617 5614 5611 5608 5605 5603 5600 5598 5595 5593 5590 5587 5584 5581 5578 5575 5572 5569 5565 5562 5558 5554 5550 5546 5543 5538 5534 5530 5526 5522 5517 5513 5508 5504 5499 5494 5489 5483 5478 5473 5468 5463 5458 5454 5449 5444 5440 5435 5431 5428 5424 5420 5417 5413 5410 5407 5404 5401
5678 5677 5675 5673 5671 5669 5667 5665 5662 5660 5658 5655 5653 5651 5649 5646 5644 5641 5639 5637 5635 5632 5630 5627 5625 5623 5620 5617 5614 5611 5608 5605 5602 5599 5596 5594 5591 5589 5586 5583 5580 5577 5574 5571 5568 5565 5561 5558 5554 5550 5546 5542 5538 5534 5530 5526 5522 5517 5513 5509 5504 5499 5494 5489 5484 5479 5474 5468 5463 5459 5454 5449 5445 5440 5436 5432 5428 5424 5421 5417 5414 5411 5407 5404 5401 5398
5675 5674 5672 5670 5668 5666 5664 5662 5659 5657 5655 5652 5650 5648 5646 5643 5641 5639 5636 5634 5631 5629 5626 5624 5622 5620 5617 5614 5611 5607 5604 5601 5598 5595 5592 5590 5587 5585 5582 5579 5575 5572 5570 5567 5564 5560 5557 5553 5550 5546 5542 5538 5534 5530 5526 5521 5517 5513 5509 5504 5499 5494 5489 5484 5479 5474 5469 5464 5459 5454 5449 5445 5440 5436 5432 5428 5425 5421 5418 5415 5411 5408 5405 5402 5399 5395
5673 5671 5670 5668 5665 5663 5661 5659 5657 5654 5652 5649 5647 5645 5643 5640 5638 5636 5633 5631 5628 5625 5623 5620 5617 5615 5613 5610 5607 5604 5600 5597 5594 5591 5588 5586 5583 5580 5577 5574 5571 5568 5565 5562 5559 5556 5552 5549 5545 5541 5537 5534 5530 5525 5521 5517 5513 5509 5504 5499 5495 5490 5484 5479 5474 5469 5464 5459 5454 5450 5445 5440 5436 5432 5429 5425 5421 5418 5415 5412 5409 5406 5403 5400 5396 5393
5670 5668 5666 5665 5663 5660 5658 5655 5654 5651 5649 5646 5644 5642 5640 5637 5635 5632 5630 5628 5625 5623 5620 5616 5613 5610 5608 5606 5603 5600 5596 5593 5590 5587 5585 5582 5579 5576 5573 5570 5567 5563 5560 5557 5554 5551 5548 5544 5540 5537 5533 5529 5525 5521 5517 5513 5508 5504 5499 5495 5490 5484 5479 5474 5469 5464 5459 5454 5450 5445 5441 5436 5432 5429 5425 5422 5418 5415 5412 5409 5406 5403 5400 5397 5394 5391
5667 5665 5663 5661 5660 5658 5655 5653 5650 5648 5646 5644 5641 5640 5637 5635 5632 5629 5626 5624 5622 5619 5616 5614 5610 5607 5603 5600 5598 5595 5592 5589 5585 5583 5581 5578 5575 5572 5569 5565 5562 5559 5556 5553 5550 5546 5543 5539 5535 5532 5528 5525 5520 5516 5512 5508 5504 5499 5494 5489 5484 5479 5474 5469 5464 5459 5455 5450 5445 5441 5436 5432 5429 5425 5422 5419 5415 5413 5410 5407 5404 5401 5398 5395 5392 5389
5665 5663 5660 5658 5656 5655 5653 5650 5648 5645 5643 5641 5639 5637 5635 5633 5630 5627 5623 5620 5618 5615 5612 5610 5607 5604 5601 5597 5594 5591 5588 5585 5581 5578 5576 5574 5571 5568 5565 5561 5558 5555 5551 5548 5545 5542 5538 5535 5531 5527 5524 5520 5516 5512 5508 5503 5499 5494 5489 5484 5479 5474 5469 5464 5459 5454 5450 5445 5441 5436 5433 5429 5425 5422 5419 5416 5413 5410 5407 5404 5401 5398 5395 5393 5390 5387
5662 5660 5658 5655 5654 5651 5650 5647 5645 5643 5640 5639 5636 5634 5632 5630 5628 5625 5621 5618 5615 5612 5609 5605 5603 5600 5598 5595 5591 5588 5584 5581 5578 5575 5571 5569 5566 5564 5560 5556 5553 5550 5547 5543 5540 5537 5534 5530 5526 5523 5519 5515 5511 5507 5503 5499 5494 5489 5484 5479 5474 5469 5464 5459 5454 5450 5445 5440 5436 5432 5429 5425 5422 5419 5416 5413 5410 5408 5405 5402 5399 5396 5393 5390 5387 5384
5659 5657 5655 5653 5650 5649 5646 5644 5642 5640 5638 5636 5633 5631 5629 5626 5624 5622 5619 5616 5613 5610 5606 5602 5599 5596 5594 5592 5590 5586 5582 5578 5574 5570 5567 5565 5563 5560 5555 5551 5547 5545 5542 5538 5535 5531 5529 5525 5521 5518 5514 5510 5506 5502 5498 5494 5489 5484 5479 5474 5469 5464 5459 5454 5450 5445 5441 5436 5432 5429 5425 5422 5419 5416 5413 5410 5408 5405 5402 5399 5396 5393 5390 5387 5384 5381
5656 5654 5652 5650 5648 5646 5644 5641 5639 5637 5635 5633 5631 5628 5626 5624 5621 5619 5616 5612 5609 5606 5603 5600 5596 5593 5591 5589 5587 5583 5580 5575 5571 5567 5563 5560 5558 5556 5552 5547 5543 5540 5538 5534 5530 5526 5524 5521 5517 5513 5509 5505 5501 5497 5493 5488 5484 5479 5474 5469 5464 5459 5454 5450 5445 5441 5437 5433 5429 5425 5422 5419 5416 5413 5410 5408 5405 5402 5399 5396 5393 5390 5387 5384 5381 5378
5653 5651 5649 5647 5645 5643 5641 5639 5636 5634 5632 5630 5628 5625 5623 5620 5618 5615 5612 5609 5606 5603 5600 5596 5593 5590 5587 5586 5584 5581 5577 5572 5568 5564 5560 5556 5553 5551 5549 5544 5539 5535 5533 5530 5526 5522 5519 5515 5512 5508 5505 5500 5496 5492 5488 5483 5479 5474 5469 5464 5459 5454 5450 5445 5441 5437 5433 5429 5425 5422 5419 5416 5414 5410 5408 5405 5402 5399 5396 5394 5390 5387 5385 5382 5379 5375
5650 5648 5646 5644 5642 5640 5638 5636 5634 5631 5629 5627 5625 5623 5620 5617 5615 5612 5609 5606 5603 5600 5597 5594 5591 5587 5584 5581 5580 5579 5575 5570 5566 5562 5558 5553 5549 5546 5545 5540 5535 5530 5527 5525 5521 5518 5514 5510 5507 5503 5499 5495 5491 5487 5483 5478 5473 5469 5464 5459 5455 5450 5446 5441 5437 5433 5429 5425 5422 5419 5416 5414 5411 5408 5405 5402 5400 5396 5394 5391 5388 5385 5382 5379 5376 5373
5648 5645 5643 5641 5639 5637 5635 5633 5631 5629 5627 5625 5622 5620 5617 5615 5611 5608 5605 5602 5599 5596 5594 5591 5589 5586 5582 5579 5576 5575 5573 5569 5564 5559 5555 5550 5545 5542 5540 5536 5531 5527 5523 5519 5516 5513 5509 5505 5502 5498 5494 5490 5486 5481 5477 5473 5468 5464 5459 5455 5450 5446 5442 5437 5433 5430 5426 5422 5419 5416 5414 5411 5408 5405 5402 5400 5397 5394 5391 5388 5385 5382 5379 5376 5373 5370
5645 5643 5641 5639 5636 5635 5633 5630 5628 5626 5624 5621 5619 5616 5614 5611 5608 5605 5602 5599 5596 5594 5591 5588 5585 5583 5581 5577 5574 5571 5570 5566 5561 5557 5552 5547 5542 5538 5535 5531 5526 5522 5518 5515 5511 5507 5503 5500 5496 5493 5489 5485 5480 5476 5472 5467 5463 5459 5454 5450 5446 5442 5438 5434 5430 5426 5422 5419 5416 5414 5411 5408 5405 5403 5400 5397 5394 5391 5388 5385 5382 5380 5376 5373 5370 5367
5642 5640 5638 5636 5634 5632 5630 5628 5626 5623 5621 5618 5616 5613 5610 5607 5605 5602 5599 5596 5593 5590 5588 5585 5582 5580 5577 5574 5571 5568 5566 5563 5559 5554 5550 5545 5539 5535 5531 5527 5521 5516 5511 5508 5505 5502 5498 5494 5490 5487 5483 5479 5475 5470 5466 5462 5458 5454 5449 5445 5441 5437 5434 5430 5426 5422 5419 5416 5413 5411 5408 5405 5403 5400 5397 5395 5391 5389 5386 5383 5380 5377 5374 5371 5368 5365
5640 5638 5636 5634 5631 5629 5627 5625 5623 5621 5618 5615 5612 5610 5607 5604 5601 5598 5596 5593 5590 5587 5585 5582 5579 5576 5573 5570 5567 5565 5562 5559 5555 5551 5546 5541 5537 5533 5529 5524 5518 5512 5506 5501 5498 5495 5492 5488 5485 5480 5476 5472 5468 5464 5460 5456 5452 5448 5445 5440 5437 5433 5429 5426 5422 5419 5416 5413 5410 5408 5405 5403 5400 5397 5395 5392 5389 5386 5383 5380 5377 5374 5371 5368 5365 5363
5637 5635 5633 5631 5629 5627 5624 5622 5620 5617 5615 5612 5609 5606 5603 5600 5598 5595 5593 5590 5587 5584 5581 5578 5575 5572 5570 5567 5563 5560 5558 5555 5552 5548 5543 5538 5533 5529 5525 5521 5515 5509 5503 5497 5492 5487 5484 5481 5478 5475 5470 5466 5462 5459 5455 5451 5447 5443 5440 5436 5432 5429 5425 5422 5419 5416 5413 5410 5408 5405 5403 5400 5398 5395 5392 5389 5386 5384 5381 5378 5375 5372 5369 5366 5363 5360
5634 5632 5630 5628 5626 5624 5622 5620 5617 5614 5611 5608 5605 5603 5600 5597 5595 5592 5589 5587 5584 5581 5578 5575 5571 5569 5566 5563 5560 5556 5554 5552 5549 5545 5540 5535 5530 5525 5522 5518 5512 5506 5500 5494 5488 5482 5477 5474 5471 5468 5465 5460 5456 5453 5449 5445 5442 5438 5435 5431 5428 5425 5421 5418 5415 5412 5410 5407 5405 5402 5400 5397 5395 5392 5390 5387 5384 5381 5378 5375 5372 5370 5367 5364 5361 5358
5632 5630 5627 5625 5624 5621 5619 5617 5614 5611 5608 5605 5602 5600 5597 5595 5592 5589 5586 5584 5581 5578 5575 5571 5568 5564 5561 5559 5556 5553 5550 5548 5544 5540 5536 5532 5527 5522 5519 5515 5510 5503 5497 5491 5485 5479 5472 5467 5464 5461 5458 5454 5450 5447 5443 5440 5436 5433 5430 5427 5424 5421 5418 5415 5412 5409 5407 5404 5402 5400 5397 5395 5392 5389 5387 5384 5381 5378 5375 5373 5370 5367 5364 5362 5359 5356
5629 5627 5625 5623 5621 5619 5616 5613 5610 5607 5604 5601 5599 5596 5594 5591 5589 5586 5584 5581 5578 5575 5571 5568 5565 5561 5557 5555 5551 5549 5546 5544 5540 5536 5532 5527 5523 5519 5516 5512 5508 5502 5495 5488 5482 5475 5469 5462 5458 5454 5452 5448 5445 5441 5437 5434 5431 5428 5425 5422 5420 5417 5414 5411 5409 5406 5404 5401 5399 5397 5394 5392 5389 5387 5384 5381 5379 5376 5373 5370 5367 5365 5362 5360 5357 5354
5626 5624 5622 5620 5618 5615 5613 5610 5607 5605 5601 5599 5596 5593 5591 5588 5586 5583 5580 5578 5575 5572 5569 5565 5562 5558 5555 5551 5548 5544 5541 5539 5536 5532 5528 5523 5519 5515 5511 5509 5505 5500 5493 5486 5479 5473 5466 5459 5453 5449 5445 5442 5439 5436 5432 5429 5426 5423 5420 5418 5416 5413 5410 5408 5406 5403 5401 5399 5396 5394 5391 5389 5386 5384 5381 5379 5376 5373 5370 5368 5365 5363 5360 5357 5355 5352
5624 5621 5619 5617 5615 5612 5610 5607 5605 5602 5599 5596 5594 5591 5588 5585 5583 5580 5578 5575 5572 5570 5566 5563 5559 5555 5551 5548 5544 5541 5538 5535 5531 5528 5525 5520 5515 5510 5507 5504 5501 5497 5491 5484 5477 5470 5464 5457 5450 5445 5440 5437 5435 5432 5428 5425 5422 5419 5417 5415 5412 5410 5407 5405 5403 5400 5398 5396 5393 5391 5389 5386 5384 5381 5379 5376 5374 5371 5368 5366 5363 5360 5358 5355 5353 5350
5621 5619 5616 5614 5612 5609 5606 5604 5601 5599 5597 5594 5591 5589 5586 5583 5580 5578 5575 5572 5570 5566 5563 5560 5556 5552 5548 5544 5540 5537 5534 5531 5527 5524 5520 5516 5512 5507 5504 5500 5496 5493 5489 5482 5475 5468 5462 5456 5450 5443 5438 5434 5431 5428 5425 5422 5419 5416 5414 5411 5409 5407 5405 5402 5400 5397 5395 5393 5390 5388 5386 5384 5381 5379 5376 5374 5371 5369 5366 5364 5361 5359 5356 5354 5351 5349
5618 5616 5613 5611 5608 5606 5603 5601 5598 5596 5594 5592 5589 5587 5584 5581 5578 5575 5572 5569 5566 5563 5559 5556 5553 5550 5545 5541 5537 5534 5531 5528 5525 5520 5515 5511 5507 5503 5500 5496 5492 5489 5485 5480 5473 5466 5459 5454 5448 5443 5436 5431 5427 5424 5422 5419 5416 5413 5411 5409 5407 5405 5402 5400 5397 5395 5392 5390 5388 5385 5383 5381 5379 5376 5374 5372 5369 5367 5364 5361 5359 5357 5354 5352 5349 5347
5615 5613 5610 5608 5605 5603 5600 5598 5595 5593 5591 5589 5586 5584 5581 5579 5576 5573 5569 5566 5563 5559 5555 5552 5549 5546 5542 5538 5534 5530 5527 5525 5522 5517 5513 5508 5503 5499 5495 5491 5487 5484 5481 5477 5471 5464 5457 5450 5445 5441 5436 5430 5425 5421 5419 5416 5413 5411 5408 5406 5404 5402 5400 5397 5395 5392 5390 5388 5385 5383 5381 5379 5376 5374 5372 5370 5367 5365 5362 5360 5357 5355 5352 5350 5348 5345
5612 5610 5607 5605 5602 5600 5597 5595 5593 5590 5588 5586 5583 5581 5578 5575 5573 5570 5566 5563 5560 5556 5552 5548 5545 5542 5539 5535 5530 5526 5522 5520 5517 5514 5510 5505 5499 5495 5491 5487 5482 5478 5475 5472 5469 5463 5456 5448 5441 5437 5433 5428 5423 5419 5416 5413 5411 5409 5406 5404 5402 5400 5398 5395 5393 5390 5388 5385 5383 5380 5378 5376 5374 5372 5370 5367 5365 5363 5360 5358 5355 5353 5350 5348 5346 5344
5609 5606 5604 5601 5599 5597 5595 5592 5590 5588 5585 5583 5580 5578 5575 5572 5569 5566 5563 5560 5556 5553 5549 5545 5542 5538 5535 5531 5528 5523 5519 5515 5511 5508 5505 5501 5495 5490 5487 5483 5478 5473 5469 5466 5463 5460 5455 5448 5440 5434 5428 5424 5420 5416 5413 5410 5408 5406 5404 5402 5400 5398 5395 5393 5390 5388 5385 5383 5380 5378 5375 5373 5371 5369 5367 5365 5363 5360 5358 5355 5353 5351 5349 5346 5345 5342
5606 5604 5602 5599 5597 5595 5592 5590 5587 5585 5582 5580 5577 5575 5572 5569 5566 5563 5560 5556 5553 5550 5546 5542 5538 5534 5530 5527 5524 5520 5516 5512 5507 5503 5500 5496 5491 5486 5482 5478 5474 5469 5463 5459 5455 5453 5450 5446 5440 5433 5426 5421 5417 5414 5411 5408 5405 5404 5402 5400 5398 5395 5393 5391 5388 5386 5383 5380 5378 5375 5373 5371 5369 5366 5365 5362 5360 5358 5355 5353 5351 5349 5346 5345 5343 5340
5604 5602 5600 5597 5595 5592 5590 5587 5585 5582 5579 5577 5574 5572 5569 5566 5563 5560 5556 5553 5550 5547 5543 5540 5535 5531 5527 5522 5518 5515 5511 5508 5504 5500 5495 5491 5487 5481 5477 5472 5469 5464 5459 5454 5449 5446 5443 5440 5436 5431 5425 5419 5415 5412 5409 5406 5403 5401 5399 5398 5395 5393 5391 5388 5386 5383 5380 5378 5375 5372 5370 5368 5365 5364 5362 5360 5357 5355 5353 5350 5348 5346 5344 5342 5340 5339
5602 5600 5597 5595 5592 5590 5587 5585 5582 5579 5576 5574 5571 5568 5565 5562 5560 5556 5553 5550 5546 5543 5540 5536 5533 5529 5524 5519 5514 5510 5505 5502 5499 5495 5491 5487 5482 5477 5472 5467 5463 5459 5455 5450 5445 5441 5438 5434 5430 5427 5423 5417 5412 5408 5406 5404 5401 5398 5396 5395 5393 5391 5388 5386 5383 5380 5378 5375 5372 5370 5367 5365 5362 5360 5359 5357 5355 5352 5350 5347 5345 5343 5342 5340 5338 5337
5600 5598 5595 5593 5590 5587 5585 5582 5579 5576 5574 5571 5568 5565 5562 5559 5556 5553 5549 5546 5543 5539 5535 5532 5529 5525 5521 5517 5512 5507 5502 5497 5493 5490 5485 5481 5477 5472 5467 5461 5457 5454 5450 5445 5441 5438 5435 5430 5426 5423 5420 5416 5411 5406 5403 5400 5398 5395 5393 5391 5390 5388 5385 5383 5380 5378 5375 5372 5370 5367 5364 5361 5359 5357 5355 5354 5352 5350 5347 5345 5343 5340 5339 5338 5336 5335
5597 5595 5593 5590 5588 5585 5582 5579 5576 5574 5571 5568 5565 5562 5559 5555 5552 5549 5545 5542 5539 5535 5531 5528 5524 5521 5517 5513 5509 5505 5499 5494 5489 5485 5480 5476 5472 5467 5462 5456 5452 5448 5445 5441 5437 5433 5430 5426 5423 5419 5416 5413 5410 5405 5401 5397 5395 5392 5389 5387 5385 5384 5382 5380 5378 5375 5372 5370 5367 5364 5361 5359 5356 5354 5352 5350 5349 5347 5345 5342 5340 5338 5337 5335 5334 5333
5595 5593 5590 5588 5585 5582 5579 5576 5573 5571 5568 5565 5561 5558 5555 5552 5548 5545 5541 5538 5534 5531 5527 5524 5520 5516 5513 5509 5505 5500 5496 5491 5486 5481 5476 5471 5466 5462 5457 5452 5447 5443 5440 5437 5433 5429 5425 5422 5419 5415 5412 5409 5406 5403 5400 5396 5393 5389 5386 5384 5382 5380 5378 5376 5374 5372 5370 5367 5364 5361 5359 5356 5353 5351 5349 5347 5346 5344 5342 5340 5338 5336 5334 5333 5332 5331
5592 5590 5587 5585 5582 5579 5576 5573 5570 5568 5565 5561 5558 5555 5551 5548 5545 5541 5538 5534 5530 5526 5523 5519 5515 5512 5508 5504 5500 5496 5491 5486 5482 5477 5471 5466 5461 5457 5452 5448 5442 5438 5434 5431 5428 5425 5421 5418 5415 5413 5409 5406 5403 5400 5397 5395 5392 5388 5384 5381 5379 5377 5375 5373 5371 5369 5366 5364 5361 5359 5356 5353 5350 5348 5345 5344 5342 5341 5339 5337 5335 5334 5332 5331 5330 5329
5589 5586 5584 5581 5579 5576 5574 5570 5567 5565 5561 5558 5555 5551 5548 5544 5541 5538 5534 5531 5527 5523 5519 5515 5511 5508 5504 5500 5496 5491 5486 5482 5477 5472 5467 5462 5456 5452 5448 5443 5438 5434 5429 5425 5422 5420 5417 5414 5411 5409 5407 5404 5400 5397 5394 5392 5389 5386 5383 5379 5376 5373 5371 5370 5368 5365 5363 5361 5358 5355 5352 5350 5347 5345 5342 5340 5339 5338 5336 5335 5333 5331 5330 5329 5328 5327
5586 5584 5581 5579 5576 5574 5571 5568 5565 5561 5558 5555 5551 5548 5545 5541 5537 5534 5530 5527 5523 5520 5516 5511 5507 5503 5500 5496 5492 5488 5483 5477 5472 5467 5462 5457 5452 5447 5443 5438 5434 5430 5425 5420 5417 5415 5413 5410 5408 5405 5403 5400 5398 5395 5391 5389 5386 5384 5381 5377 5374 5370 5368 5366 5364 5362 5360 5357 5355 5352 5349 5346 5344 5341 5339 5337 5336 5335 5333 5332 5330 5329 5328 5327 5326 5325
5583 5581 5579 5576 5573 5571 5568 5565 5562 5559 5555 5552 5549 5545 5541 5538 5534 5530 5526 5522 5519 5515 5511 5507 5502 5498 5493 5489 5486 5482 5478 5473 5467 5462 5457 5452 5447 5442 5437 5433 5429 5425 5421 5417 5413 5410 5408 5407 5404 5402 5399 5397 5394 5391 5388 5385 5383 5380 5378 5375 5372 5369 5366 5363 5361 5358 5355 5353 5351 5349 5346 5343 5340 5338 5336 5334 5333 5332 5330 5329 5328 5327 5326 5325 5325 5324
5581 5578 5576 5573 5570 5568 5565 5562 5559 5556 5553 5550 5546 5543 5539 5535 5531 5527 5523 5519 5515 5511 5507 5503 5498 5493 5488 5482 5478 5474 5470 5466 5462 5457 5452 5447 5442 5437 5432 5428 5424 5420 5417 5414 5410 5406 5404 5403 5401 5399 5396 5394 5391 5388 5385 5382 5379 5377 5375 5372 5369 5366 5362 5359 5357 5355 5352 5350 5347 5345 5343 5340 5337 5335 5333 5331 5330 5329 5328 5327 5326 5325 5325 5324 5323 5322
5578 5576 5573 5570 5568 5565 5562 5559 5556 5553 5550 5547 5543 5540 5536 5533 5529 5525 5521 5517 5513 5508 5504 5499 5494 5489 5484 5479 5473 5468 5463 5458 5454 5450 5446 5442 5437 5432 5428 5423 5419 5415 5413 5410 5407 5404 5401 5399 5397 5395 5394 5391 5388 5385 5382 5379 5376 5373 5370 5368 5366 5363 5359 5356 5353 5351 5348 5346 5344 5341 5339 5337 5335 5332 5330 5328 5327 5326 5325 5325 5324 5324 5323 5322 5321 5321
5575 5573 5570 5568 5565 5562 5560 5557 5554 5550 5547 5544 5540 5537 5533 5530 5526 5522 5518 5514 5510 5505 5501 5496 5491 5486 5480 5474 5469 5463 5457 5452 5448 5444 5440 5436 5432 5428 5424 5420 5416 5412 5409 5407 5405 5402 5399 5396 5394 5391 5389 5387 5385 5382 5379 5375 5372 5370 5367 5365 5362 5360 5357 5354 5351 5348 5345 5342 5340 5338 5336 5334 5331 5329 5327 5326 5325 5324 5323 5323 5322 5322 5321 5321 5320 5319
5573 5570 5568 5565 5563 5560 5557 5554 5551 5548 5545 5541 5538 5534 5530 5527 5523 5520 5515 5511 5507 5502 5497 5493 5488 5483 5477 5471 5465 5460 5454 5448 5443 5438 5435 5431 5427 5424 5420 5417 5413 5409 5406 5403 5400 5399 5397 5395 5392 5389 5386 5383 5380 5378 5375 5372 5369 5366 5363 5361 5358 5355 5353 5350 5348 5345 5342 5340 5337 5335 5333 5331 5329 5327 5325 5324 5323 5322 5322 5321 5321 5321 5320 5320 5319 5318
5570 5568 5565 5563 5560 5558 5555 5552 5549 5545 5542 5539 5535 5531 5528 5524 5520 5516 5512 5508 5504 5499 5493 5489 5484 5480 5474 5469 5464 5458 5452 5446 5440 5435 5431 5427 5423 5419 5416 5413 5410 5406 5403 5400 5397 5394 5392 5391 5389 5387 5384 5380 5376 5373 5371 5369 5366 5363 5360 5357 5355 5352 5349 5347 5345 5342 5340 5337 5335 5333 5330 5329 5327 5326 5324 5323 5322 5321 5321 5320 5320 5320 5319 5319 5318 5317
5568 5566 5563 5561 5558 5555 5552 5549 5546 5543 5539 5536 5532 5529 5525 5521 5517 5512 5508 5504 5500 5495 5490 5485 5480 5475 5470 5465 5461 5456 5451 5446 5440 5435 5430 5426 5421 5417 5414 5410 5407 5404 5400 5397 5394 5391 5388 5387 5385 5384 5381 5378 5374 5370 5367 5364 5362 5359 5357 5354 5352 5349 5346 5344 5342 5340 5337 5335 5333 5331 5329 5327 5326 5325 5323 5322 5321 5320 5320 5319 5319 5319 5318 5318 5317 5316
5566 5563 5561 5558 5555 5553 5550 5546 5543 5540 5537 5533 5530 5526 5522 5518 5514 5510 5505 5500 5496 5491 5486 5481 5475 5470 5465 5460 5456 5452 5448 5444 5439 5435 5430 5426 5422 5418 5414 5410 5407 5403 5399 5395 5391 5388 5385 5383 5382 5381 5380 5376 5372 5368 5364 5360 5358 5356 5354 5351 5349 5346 5344 5342 5340 5337 5335 5333 5331 5329 5328 5326 5325 5324 5322 5321 5320 5320 5319 5319 5318 5318 5317 5317 5316 5315
5564 5561 5559 5556 5553 5550 5547 5544 5540 5537 5534 5530 5526 5523 5518 5515 5511 5507 5502 5497 5492 5488 5482 5477 5472 5467 5461 5456 5452 5448 5444 5440 5436 5433 5429 5426 5422 5419 5415 5411 5408 5404 5400 5395 5391 5386 5382 5379 5378 5377 5377 5375 5371 5366 5362 5358 5355 5353 5351 5349 5347 5345 5342 5340 5338 5335 5334 5331 5330 5328 5326 5325 5324 5323 5322 5320 5319 5319 5318 5318 5317 5316 5316 5316 5315 5315
5561 5559 5556 5554 5550 5547 5544 5541 5538 5535 5531 5527 5524 5520 5515 5511 5507 5503 5499 5494 5489 5483 5478 5473 5468 5463 5458 5453 5449 5445 5441 5438 5434 5430 5427 5424 5421 5418 5415 5411 5408 5405 5400 5396 5391 5386 5382 5377 5373 5372 5372 5372 5369 5365 5360 5356 5353 5350 5348 5347 5345 5343 5340 5338 5336 5334 5332 5330 5328 5327 5325 5324 5323 5322 5321 5320 5319 5317 5317 5316 5316 5315 5315 5315 5315 5314
5559 5557 5554 5551 5548 5545 5542 5539 5535 5532 5528 5524 5520 5516 5512 5508 5504 5499 5494 5490 5484 5479 5473 5468 5463 5459 5455 5450 5446 5441 5438 5435 5432 5428 5425 5421 5419 5416 5413 5410 5406 5403 5400 5396 5391 5387 5382 5377 5372 5368 5366 5366 5365 5363 5360 5355 5352 5349 5346 5344 5343 5341 5339 5337 5335 5333 5331 5329 5327 5325 5324 5323 5322 5321 5320 5319 5317 5316 5315 5315 5315 5315 5314 5314 5314 5314